Time,TemperatureF,DewpointF,PressureIn,WindDirection,WindDirectionDegrees,WindSpeedMPH,WindSpeedGustMPH,Humidity,HourlyPrecipIn,Conditions,Clouds,dailyrainin,SolarRadiationWatts/m^2,SoftwareType,DateUTC
2013-02-05 00:00:00,32.7,29.3,29.76,SSE,158,1.0,1.0,87,0.00,,,0.00,0,Wunderground v.1.15,2013-02-05 08:00:00,
2013-02-05 00:10:00,33.8,29.8,29.76,WSW,244,2.0,2.0,85,0.00,,,0.00,0,Wunderground v.1.15,2013-02-05 08:10:00,
2013-02-05 00:20:00,34.5,29.9,29.76,SW,214,2.0,2.0,83,0.00,,,0.00,0,Wunderground v.1.15,2013-02-05 08:20:00,
2013-02-05 00:30:00,35.3,30.4,29.75,WSW,244,2.0,2.0,82,0.00,,,0.00,0,Wunderground v.1.15,2013-02-05 08:30:00,
2013-02-05 00:40:00,34.7,29.8,29.75,West,269,2.0,2.0,82,0.00,,,0.00,0,Wunderground v.1.15,2013-02-05 08:40:00,
2013-02-05 00:50:00,34.9,30.0,29.75,SW,225,3.0,3.0,82,0.00,,,0.00,0,Wunderground v.1.15,2013-02-05 08:50:00,
2013-02-05 01:00:00,35.6,30.3,29.75,SSE,153,4.0,4.0,81,0.00,,,0.00,0,Wunderground v.1.15,2013-02-05 09:00:00,
2013-02-05 01:15:00,35.0,30.1,29.75,SSE,164,3.0,3.0,82,0.00,,,0.00,0,Wunderground v.1.15,2013-02-05 09:15:00,
2013-02-05 01:20:00,35.9,30.3,29.75,SW,235,0.0,3.0,80,0.00,,,0.00,0,Wunderground v.1.15,2013-02-05 09:20:00,
2013-02-05 01:30:00,35.9,29.7,29.75,NE,42,5.0,5.0,78,0.00,,,0.00,0,Wunderground v.1.15,2013-02-05 09:30:00,
2013-02-05 01:40:00,37.5,30.3,29.75,ESE,119,1.0,4.0,75,0.00,,,0.00,0,Wunderground v.1.15,2013-02-05 09:40:00,
2013-02-05 01:50:00,37.8,30.3,29.75,ENE,63,0.0,1.0,74,0.00,,,0.00,0,Wunderground v.1.15,2013-02-05 09:50:00,
2013-02-05 02:00:00,37.2,29.7,29.75,ENE,75,2.0,2.0,74,0.00,,,0.00,0,Wunderground v.1.15,2013-02-05 10:00:00,
2013-02-05 02:10:00,37.2,29.3,29.75,SSW,213,4.0,4.0,73,0.00,,,0.00,0,Wunderground v.1.15,2013-02-05 10:10:00,
2013-02-05 02:20:00,37.3,28.8,29.74,East,83,0.0,0.0,71,0.00,,,0.00,0,Wunderground v.1.15,2013-02-05 10:20:00,
2013-02-05 02:30:00,36.3,28.5,29.74,South,186,3.0,3.0,73,0.00,,,0.00,0,Wunderground v.1.15,2013-02-05 10:30:00,
2013-02-05 02:40:00,36.8,28.3,29.74,North,0,0.0,0.0,71,0.00,,,0.00,0,Wunderground v.1.15,2013-02-05 10:40:00,
2013-02-05 02:45:00,37.8,27.8,29.73,East,91,5.0,5.0,67,0.00,,,0.00,0,Wunderground v.1.15,2013-02-05 10:45:00,
2013-02-05 02:50:00,37.6,27.3,29.74,North,355,4.0,4.0,66,0.00,,,0.00,0,Wunderground v.1.15,2013-02-05 10:50:00,
2013-02-05 03:00:00,40.8,27.2,29.73,NE,49,3.0,3.0,58,0.00,,,0.00,0,Wunderground v.1.15,2013-02-05 11:00:00,
2013-02-05 03:10:00,41.1,26.6,29.73,NE,36,3.0,3.0,56,0.00,,,0.00,0,Wunderground v.1.15,2013-02-05 11:10:00,
2013-02-05 03:20:00,42.1,26.6,29.73,NE,34,0.0,0.0,54,0.00,,,0.00,0,Wunderground v.1.15,2013-02-05 11:20:00,
2013-02-05 03:35:00,42.6,25.2,29.72,NE,43,3.0,3.0,50,0.00,,,0.00,0,Wunderground v.1.15,2013-02-05 11:35:00,
2013-02-05 03:40:00,42.1,25.7,29.73,WSW,254,1.0,3.0,52,0.00,,,0.00,0,Wunderground v.1.15,2013-02-05 11:40:00,
2013-02-05 03:50:00,43.4,25.5,29.72,East,82,5.0,5.0,49,0.00,,,0.00,0,Wunderground v.1.15,2013-02-05 11:50:00,
2013-02-05 04:00:00,42.8,25.4,29.72,NE,56,1.0,1.0,50,0.00,,,0.00,0,Wunderground v.1.15,2013-02-05 12:00:00,
2013-02-05 04:10:00,44.2,23.6,29.72,NNE,33,2.0,2.0,44,0.00,,,0.00,0,Wunderground v.1.15,2013-02-05 12:10:00,
2013-02-05 04:25:00,43.8,24.9,29.72,ENE,78,2.0,2.0,47,0.00,,,0.00,0,Wunderground v.1.15,2013-02-05 12:25:00,
2013-02-05 04:30:00,44.4,23.8,29.72,SE,125,4.0,4.0,44,0.00,,,0.00,0,Wunderground v.1.15,2013-02-05 12:30:00,
2013-02-05 04:40:00,45.0,23.8,29.72,NNW,341,6.0,6.0,43,0.00,,,0.00,0,Wunderground v.1.15,2013-02-05 12:40:00,
2013-02-05 04:50:00,45.8,24.5,29.72,WSW,239,8.0,10.0,43,0.00,,,0.00,0,Wunderground v.1.15,2013-02-05 12:50:00,
2013-02-05 05:00:00,45.6,27.0,29.72,South,185,13.0,13.0,48,0.00,,,0.00,0,Wunderground v.1.15,2013-02-05 13:00:00,
2013-02-05 05:10:00,47.5,27.2,29.72,WSW,251,10.0,10.0,45,0.00,,,0.00,0,Wunderground v.1.15,2013-02-05 13:10:00,
2013-02-05 05:20:00,46.5,27.8,29.72,West,265,6.0,6.0,48,0.00,,,0.00,0,Wunderground v.1.15,2013-02-05 13:20:00,
2013-02-05 05:35:00,46.9,29.7,29.72,SW,225,7.0,7.0,51,0.00,,,0.00,0,Wunderground v.1.15,2013-02-05 13:35:00,
2013-02-05 05:40:00,46.7,28.5,29.72,West,259,9.0,9.0,49,0.00,,,0.00,0,Wunderground v.1.15,2013-02-05 13:40:00,
2013-02-05 05:50:00,46.0,26.9,29.72,South,183,2.0,2.0,47,0.00,,,0.00,0,Wunderground v.1.15,2013-02-05 13:50:00,
2013-02-05 06:00:00,44.8,26.8,29.72,NNW,348,9.0,9.0,49,0.00,,,0.00,0,Wunderground v.1.15,2013-02-05 14:00:00,
2013-02-05 06:15:00,45.6,31.7,29.72,WSW,247,8.0,8.0,58,0.00,,,0.00,0,Wunderground v.1.15,2013-02-05 14:15:00,
2013-02-05 06:20:00,45.4,30.6,29.72,NW,309,3.0,8.0,56,0.00,,,0.00,0,Wunderground v.1.15,2013-02-05 14:20:00,
2013-02-05 06:30:00,45.4,32.7,29.72,West,259,9.0,9.0,61,0.00,,,0.00,0,Wunderground v.1.15,2013-02-05 14:30:00,
2013-02-05 06:40:00,45.3,32.6,29.72,SSE,159,7.0,10.0,61,0.00,,,0.00,0,Wunderground v.1.15,2013-02-05 14:40:00,
2013-02-05 06:55:00,44.0,31.0,29.72,South,173,4.0,4.0,60,0.00,,,0.00,0,Wunderground v.1.15,2013-02-05 14:55:00,
2013-02-05 07:00:00,44.1,31.9,29.72,SE,137,0.0,0.0,62,0.00,,,0.00,0,Wunderground v.1.15,2013-02-05 15:00:00,
2013-02-05 07:05:00,44.3,31.7,29.72,ESE,109,1.0,1.0,61,0.00,,,0.00,0,Wunderground v.1.15,2013-02-05 15:05:00,
2013-02-05 07:10:00,43.3,31.1,29.72,SSE,165,3.0,3.0,62,0.00,,,0.00,0,Wunderground v.1.15,2013-02-05 15:10:00,
2013-02-05 07:20:00,43.5,31.3,29.72,SSE,165,0.0,0.0,62,0.00,,,0.00,0,Wunderground v.1.15,2013-02-05 15:20:00,
2013-02-05 07:30:00,41.3,30.4,29.72,SSE,165,1.0,1.0,65,0.00,,,0.00,0,Wunderground v.1.15,2013-02-05 15:30:00,
2013-02-05 07:40:00,40.6,31.2,29.72,SSE,165,2.0,2.0,69,0.00,,,0.00,0,Wunderground v.1.15,2013-02-05 15:40:00,
2013-02-05 07:50:00,41.9,32.5,29.72,West,277,4.0,4.0,69,0.00,,,0.00,0,Wunderground v.1.15,2013-02-05 15:50:00,
2013-02-05 08:00:00,43.1,34.3,29.73,West,266,4.0,4.0,71,0.00,,,0.00,0,Wunderground v.1.15,2013-02-05 16:00:00,
2013-02-05 08:10:00,42.9,34.1,29.73,NW,309,6.0,6.0,71,0.00,,,0.00,0,Wunderground v.1.15,2013-02-05 16:10:00,
2013-02-05 08:20:00,42.0,35.0,29.74,NNW,345,5.0,5.0,76,0.00,,,0.00,0,Wunderground v.1.15,2013-02-05 16:20:00,
2013-02-05 08:30:00,40.7,35.3,29.74,West,260,6.0,6.0,81,0.00,,,0.00,0,Wunderground v.1.15,2013-02-05 16:30:00,
2013-02-05 08:40:00,40.2,35.4,29.75,WSW,253,6.0,6.0,83,0.00,,,0.00,0,Wunderground v.1.15,2013-02-05 16:40:00,
2013-02-05 08:50:00,40.4,35.6,29.75,NW,305,0.0,0.0,83,0.00,,,0.00,0,Wunderground v.1.15,2013-02-05 16:50:00,
2013-02-05 09:00:00,41.1,35.7,29.75,WSW,256,12.0,12.0,81,0.00,,,0.00,0,Wunderground v.1.15,2013-02-05 17:00:00,
2013-02-05 09:15:00,40.8,36.0,29.75,SSW,203,4.0,4.0,83,0.00,,,0.00,0,Wunderground v.1.15,2013-02-05 17:15:00,
2013-02-05 09:20:00,40.4,36.2,29.76,WSW,250,4.0,4.0,85,0.00,,,0.00,0,Wunderground v.1.15,2013-02-05 17:20:00,
2013-02-05 09:30:00,40.5,36.3,29.75,NW,306,5.0,5.0,85,0.00,,,0.00,0,Wunderground v.1.15,2013-02-05 17:30:00,
2013-02-05 09:40:00,41.2,37.0,29.76,WSW,240,9.0,9.0,85,0.00,,,0.00,0,Wunderground v.1.15,2013-02-05 17:40:00,
2013-02-05 09:50:00,41.8,37.0,29.76,NW,325,8.0,8.0,83,0.00,,,0.00,0,Wunderground v.1.15,2013-02-05 17:50:00,
2013-02-05 10:00:00,41.7,37.2,29.76,NNW,341,4.0,4.0,84,0.00,,,0.00,0,Wunderground v.1.15,2013-02-05 18:00:00,
2013-02-05 10:10:00,42.1,37.3,29.76,West,263,3.0,3.0,83,0.00,,,0.00,0,Wunderground v.1.15,2013-02-05 18:10:00,
2013-02-05 10:20:00,42.8,37.1,29.76,WSW,239,7.0,7.0,80,0.00,,,0.00,0,Wunderground v.1.15,2013-02-05 18:20:00,
2013-02-05 10:30:00,42.8,37.4,29.76,WSW,253,4.0,4.0,81,0.00,,,0.00,0,Wunderground v.1.15,2013-02-05 18:30:00,
2013-02-05 10:40:00,43.4,37.0,29.76,NW,325,5.0,5.0,78,0.00,,,0.00,0,Wunderground v.1.15,2013-02-05 18:40:00,
2013-02-05 10:50:00,44.5,35.0,29.76,SW,217,7.0,7.0,69,0.00,,,0.00,0,Wunderground v.1.15,2013-02-05 18:50:00,
2013-02-05 11:00:00,45.2,36.0,29.76,WSW,253,4.0,4.0,70,0.00,,,0.00,0,Wunderground v.1.15,2013-02-05 19:00:00,
2013-02-05 11:10:00,44.2,35.7,29.76,WSW,241,17.0,17.0,72,0.00,,,0.00,0,Wunderground v.1.15,2013-02-05 19:10:00,
2013-02-05 11:20:00,43.1,36.0,29.77,West,264,9.0,9.0,76,0.00,,,0.00,0,Wunderground v.1.15,2013-02-05 19:20:00,
2013-02-05 11:30:00,41.7,37.2,29.78,SW,231,8.0,8.0,84,0.00,,,0.00,0,Wunderground v.1.15,2013-02-05 19:30:00,
2013-02-05 11:40:00,42.6,36.9,29.76,WSW,237,11.0,11.0,80,0.00,,,0.00,0,Wunderground v.1.15,2013-02-05 19:40:00,
2013-02-05 11:50:00,43.7,35.3,29.76,WSW,244,12.0,12.0,72,0.00,,,0.00,0,Wunderground v.1.15,2013-02-05 19:50:00,
2013-02-05 12:05:00,44.0,35.6,29.75,WSW,253,13.0,13.0,72,0.00,,,0.00,0,Wunderground v.1.15,2013-02-05 20:05:00,
2013-02-05 12:10:00,44.4,35.9,29.75,WSW,249,20.0,20.0,72,0.00,,,0.00,0,Wunderground v.1.15,2013-02-05 20:10:00,
2013-02-05 12:20:00,44.3,36.2,29.76,West,261,11.0,11.0,73,0.00,,,0.00,0,Wunderground v.1.15,2013-02-05 20:20:00,
2013-02-05 12:30:00,44.2,36.1,29.76,West,275,12.0,14.0,73,0.00,,,0.00,0,Wunderground v.1.15,2013-02-05 20:30:00,
2013-02-05 12:40:00,44.8,36.0,29.75,NNW,331,9.0,18.0,71,0.00,,,0.00,0,Wunderground v.1.15,2013-02-05 20:40:00,
2013-02-05 12:50:00,44.8,34.9,29.75,West,262,3.0,5.0,68,0.00,,,0.00,0,Wunderground v.1.15,2013-02-05 20:50:00,
2013-02-05 13:05:00,43.7,35.3,29.75,WSW,257,7.0,7.0,72,0.00,,,0.00,0,Wunderground v.1.15,2013-02-05 21:05:00,
2013-02-05 13:10:00,43.7,34.9,29.75,WSW,241,8.0,8.0,71,0.00,,,0.00,0,Wunderground v.1.15,2013-02-05 21:10:00,
2013-02-05 13:20:00,43.9,34.7,29.75,SW,225,5.0,10.0,70,0.00,,,0.00,0,Wunderground v.1.15,2013-02-05 21:20:00,
2013-02-05 13:30:00,44.4,32.6,29.75,SW,234,7.0,9.0,63,0.00,,,0.00,0,Wunderground v.1.15,2013-02-05 21:30:00,
2013-02-05 13:40:00,43.2,33.7,29.74,WSW,240,9.0,17.0,69,0.00,,,0.00,0,Wunderground v.1.15,2013-02-05 21:40:00,
2013-02-05 13:50:00,43.3,33.1,29.74,WSW,258,10.0,19.0,67,0.00,,,0.00,0,Wunderground v.1.15,2013-02-05 21:50:00,
2013-02-05 14:00:00,42.5,33.4,29.73,WSW,258,10.0,10.0,70,0.00,,,0.00,0,Wunderground v.1.15,2013-02-05 22:00:00,
2013-02-05 14:10:00,43.7,33.5,29.73,WSW,257,11.0,11.0,67,0.00,,,0.00,0,Wunderground v.1.15,2013-02-05 22:10:00,
2013-02-05 14:20:00,43.3,34.2,29.73,WSW,246,21.0,21.0,70,0.00,,,0.00,0,Wunderground v.1.15,2013-02-05 22:20:00,
2013-02-05 14:30:00,43.2,32.6,29.73,WSW,240,22.0,22.0,66,0.00,,,0.00,0,Wunderground v.1.15,2013-02-05 22:30:00,
2013-02-05 14:40:00,44.2,32.8,29.73,WSW,248,18.0,18.0,64,0.00,,,0.00,0,Wunderground v.1.15,2013-02-05 22:40:00,
2013-02-05 14:50:00,43.9,32.9,29.73,WSW,242,16.0,16.0,65,0.00,,,0.00,0,Wunderground v.1.15,2013-02-05 22:50:00,
2013-02-05 15:00:00,44.3,32.5,29.73,WSW,247,12.0,12.0,63,0.00,,,0.00,0,Wunderground v.1.15,2013-02-05 23:00:00,
2013-02-05 15:10:00,43.4,32.0,29.73,WSW,239,9.0,9.0,64,0.00,,,0.00,0,Wunderground v.1.15,2013-02-05 23:10:00,
2013-02-05 15:20:00,43.7,31.9,29.74,SW,234,13.0,13.0,63,0.00,,,0.00,0,Wunderground v.1.15,2013-02-05 23:20:00,
2013-02-05 15:35:00,43.6,32.2,29.75,WSW,256,28.0,28.0,64,0.00,,,0.00,0,Wunderground v.1.15,2013-02-05 23:35:00,
2013-02-05 15:40:00,43.9,31.7,29.75,SW,215,14.0,28.0,62,0.00,,,0.00,0,Wunderground v.1.15,2013-02-05 23:40:00,
2013-02-05 15:50:00,43.4,32.8,29.75,West,261,15.0,19.0,66,0.00,,,0.00,0,Wunderground v.1.15,2013-02-05 23:50:00,
2013-02-05 16:00:00,41.6,34.9,29.76,WSW,248,21.0,21.0,77,0.00,,,0.00,0,Wunderground v.1.15,2013-02-06 00:00:00,
2013-02-05 16:10:00,41.0,34.7,29.77,WNW,299,10.0,10.0,78,0.00,,,0.00,0,Wunderground v.1.15,2013-02-06 00:10:00,
2013-02-05 16:20:00,40.1,34.4,29.77,WSW,249,10.0,10.0,80,0.00,,,0.00,0,Wunderground v.1.15,2013-02-06 00:20:00,
2013-02-05 16:30:00,40.0,33.0,29.77,West,264,11.0,11.0,76,0.00,,,0.00,0,Wunderground v.1.15,2013-02-06 00:30:00,
2013-02-05 16:40:00,38.7,32.4,29.77,WNW,289,6.0,6.0,78,0.00,,,0.00,0,Wunderground v.1.15,2013-02-06 00:40:00,
2013-02-05 16:50:00,38.3,32.7,29.77,West,263,11.0,11.0,80,0.00,,,0.00,0,Wunderground v.1.15,2013-02-06 00:50:00,
2013-02-05 17:00:00,38.0,32.4,29.78,West,259,11.0,11.0,80,0.00,,,0.00,0,Wunderground v.1.15,2013-02-06 01:00:00,
2013-02-05 17:10:00,38.0,32.1,29.78,WSW,255,5.0,5.0,79,0.00,,,0.00,0,Wunderground v.1.15,2013-02-06 01:10:00,
2013-02-05 17:20:00,38.7,31.5,29.78,WSW,247,7.0,7.0,75,0.00,,,0.00,0,Wunderground v.1.15,2013-02-06 01:20:00,
2013-02-05 17:30:00,38.5,31.3,29.78,WSW,257,8.0,8.0,75,0.00,,,0.00,0,Wunderground v.1.15,2013-02-06 01:30:00,
2013-02-05 17:40:00,38.6,31.0,29.78,WSW,255,8.0,8.0,74,0.00,,,0.00,0,Wunderground v.1.15,2013-02-06 01:40:00,
2013-02-05 17:50:00,39.0,30.7,29.78,WSW,246,8.0,8.0,72,0.00,,,0.00,0,Wunderground v.1.15,2013-02-06 01:50:00,
2013-02-05 18:05:00,39.0,30.7,29.78,West,266,12.0,12.0,72,0.00,,,0.00,0,Wunderground v.1.15,2013-02-06 02:05:00,
2013-02-05 18:10:00,39.2,30.9,29.78,WSW,249,15.0,15.0,72,0.00,,,0.00,0,Wunderground v.1.15,2013-02-06 02:10:00,
2013-02-05 18:25:00,39.1,30.8,29.78,SW,230,9.0,9.0,72,0.00,,,0.00,0,Wunderground v.1.15,2013-02-06 02:25:00,
2013-02-05 18:30:00,39.4,30.8,29.77,WSW,245,24.0,24.0,71,0.00,,,0.00,0,Wunderground v.1.15,2013-02-06 02:30:00,
2013-02-05 18:40:00,39.5,30.9,29.77,SW,233,18.0,18.0,71,0.00,,,0.00,0,Wunderground v.1.15,2013-02-06 02:40:00,
2013-02-05 18:50:00,39.4,30.8,29.77,SW,233,14.0,20.0,71,0.00,,,0.00,0,Wunderground v.1.15,2013-02-06 02:50:00,
2013-02-05 19:05:00,39.6,30.3,29.77,SW,234,22.0,22.0,69,0.00,,,0.00,0,Wunderground v.1.15,2013-02-06 03:05:00,
2013-02-05 19:15:00,39.0,30.0,29.78,WSW,253,11.0,11.0,70,0.00,,,0.00,0,Wunderground v.1.15,2013-02-06 03:15:00,
2013-02-05 19:21:00,39.0,30.4,29.78,WSW,238,9.0,11.0,71,0.00,,,0.00,0,Wunderground v.1.15,2013-02-06 03:21:00,
2013-02-05 19:30:00,39.1,30.5,29.78,WSW,253,11.0,11.0,71,0.00,,,0.00,0,Wunderground v.1.15,2013-02-06 03:30:00,
2013-02-05 19:40:00,39.4,30.4,29.79,WSW,254,11.0,14.0,70,0.00,,,0.00,0,Wunderground v.1.15,2013-02-06 03:40:00,
2013-02-05 19:50:00,39.6,30.3,29.79,South,180,7.0,7.0,69,0.00,,,0.00,0,Wunderground v.1.15,2013-02-06 03:50:00,
2013-02-05 20:00:00,39.4,30.1,29.79,SW,225,8.0,8.0,69,0.00,,,0.00,0,Wunderground v.1.15,2013-02-06 04:00:00,
2013-02-05 20:10:00,40.1,30.4,29.79,WSW,243,13.0,13.0,68,0.00,,,0.00,0,Wunderground v.1.15,2013-02-06 04:10:00,
2013-02-05 20:20:00,39.0,29.7,29.80,SSW,200,3.0,3.0,69,0.00,,,0.00,0,Wunderground v.1.15,2013-02-06 04:20:00,
2013-02-05 20:35:00,37.6,30.1,29.80,WSW,238,12.0,12.0,74,0.00,,,0.00,0,Wunderground v.1.15,2013-02-06 04:35:00,
2013-02-05 20:40:00,39.1,31.5,29.80,NW,314,5.0,12.0,74,0.00,,,0.00,0,Wunderground v.1.15,2013-02-06 04:40:00,
2013-02-05 20:50:00,38.1,34.0,29.82,West,260,6.0,17.0,85,0.00,,,0.00,0,Wunderground v.1.15,2013-02-06 04:50:00,
2013-02-05 21:01:00,37.0,34.1,29.82,WSW,238,7.0,7.0,89,0.00,,,0.00,0,Wunderground v.1.15,2013-02-06 05:01:00,
2013-02-05 21:05:00,36.9,33.7,29.82,WSW,255,5.0,7.0,88,0.00,,,0.00,0,Wunderground v.1.15,2013-02-06 05:05:00,
2013-02-05 21:11:00,36.5,33.3,29.82,WSW,252,2.0,2.0,88,0.00,,,0.00,0,Wunderground v.1.15,2013-02-06 05:11:00,
2013-02-05 21:20:00,36.1,33.2,29.82,WSW,253,0.0,2.0,89,0.00,,,0.00,0,Wunderground v.1.15,2013-02-06 05:20:00,
2013-02-05 21:35:00,36.8,31.2,29.82,WSW,243,8.0,8.0,80,0.00,,,0.00,0,Wunderground v.1.15,2013-02-06 05:35:00,
2013-02-05 21:45:00,37.1,30.6,29.83,WSW,250,10.0,10.0,77,0.00,,,0.00,0,Wunderground v.1.15,2013-02-06 05:45:00,
2013-02-05 21:50:00,37.1,30.6,29.83,WSW,241,10.0,10.0,77,0.00,,,0.00,0,Wunderground v.1.15,2013-02-06 05:50:00,
2013-02-05 22:00:00,37.5,30.3,29.83,WSW,245,9.0,9.0,75,0.00,,,0.00,0,Wunderground v.1.15,2013-02-06 06:00:00,
2013-02-05 22:10:00,38.0,30.4,29.84,West,259,5.0,5.0,74,0.00,,,0.00,0,Wunderground v.1.15,2013-02-06 06:10:00,
2013-02-05 22:25:00,37.8,31.6,29.84,WSW,257,10.0,10.0,78,0.00,,,0.00,0,Wunderground v.1.15,2013-02-06 06:25:00,
2013-02-05 22:30:00,37.3,32.0,29.84,SW,234,2.0,10.0,81,0.00,,,0.00,0,Wunderground v.1.15,2013-02-06 06:30:00,
2013-02-05 22:40:00,36.5,31.8,29.84,WNW,288,2.0,2.0,83,0.00,,,0.00,0,Wunderground v.1.15,2013-02-06 06:40:00,
2013-02-05 22:55:00,36.5,31.5,29.84,WSW,255,6.0,6.0,82,0.00,,,0.00,0,Wunderground v.1.15,2013-02-06 06:55:00,
2013-02-05 23:00:00,36.7,31.4,29.84,WSW,252,6.0,6.0,81,0.00,,,0.00,0,Wunderground v.1.15,2013-02-06 07:00:00,
2013-02-05 23:15:00,37.3,30.7,29.84,WSW,250,9.0,9.0,77,0.00,,,0.00,0,Wunderground v.1.15,2013-02-06 07:15:00,
2013-02-05 23:20:00,37.5,30.6,29.84,West,279,6.0,9.0,76,0.00,,,0.00,0,Wunderground v.1.15,2013-02-06 07:20:00,
2013-02-05 23:30:00,38.0,30.4,29.84,WSW,257,12.0,12.0,74,0.00,,,0.00,0,Wunderground v.1.15,2013-02-06 07:30:00,
2013-02-05 23:45:00,37.7,30.5,29.84,WSW,256,6.0,6.0,75,0.00,,,0.00,0,Wunderground v.1.15,2013-02-06 07:45:00,
2013-02-05 23:50:00,38.3,29.7,29.84,WSW,250,15.0,15.0,71,0.00,,,0.00,0,Wunderground v.1.15,2013-02-06 07:50:00,